Location: Bidwell Hollow
(37.7387°N, 90.1707°W)
Time: 08:46:52
(UTC+00:00)

Envisat - Pass Details

Date: 05 October 2024
Orbit: 762 x 763 km, 98.3° (Epoch: 03 November)

Event Time Altitude Azimuth Distance (km) Brightness Sun altitude
Rises 09:52:13 0° 2° (N) 3,233 6.4 -26.0°
Reaches altitude 10° 09:54:42 10° 353° (N) 2,302 5.5 -25.5°
Enters shadow 09:56:51 22° 336° (NNW) 1,618 4.5 -25.1°
